| time (UTC) | temp C | wind direction | speed KPH | gust KPH | rain 1hr cm | rain 24hr cm | rain mn cm | humidity % | barometer mb |
| 20260506011515 | 18 | 269 | 6.4 | 11.3 | 0.00 | 0.18 | 0.18 | 73 | 1018.1 |
| 20260506010526 | 18 | 291 | 8.0 | 9.7 | 0.00 | 0.18 | 0.18 | 73 | 1018.2 |
| 20260506005530 | 18 | 269 | 6.4 | 9.7 | 0.00 | 0.18 | 0.18 | 72 | 1018.2 |
| 20260506004516 | 18 | 245 | 6.4 | 9.7 | 0.00 | 0.18 | 0.18 | 72 | 1018.2 |
| 20260506003525 | 18 | 259 | 8.0 | 11.3 | 0.00 | 0.18 | 0.18 | 72 | 1018.1 |
| 20260506002525 | 18 | 260 | 8.0 | 11.3 | 0.00 | 0.18 | 0.18 | 73 | 1018.1 |
| 20260506001554 | 18 | 291 | 6.4 | 12.9 | 0.00 | 0.18 | 0.18 | 73 | 1018.0 |
| 20260506000516 | 18 | 275 | 9.7 | 12.9 | 0.00 | 0.18 | 0.18 | 74 | 1018.0 |
| 20260505235520 | 18 | 274 | 8.0 | 11.3 | 0.00 | 0.18 | 0.18 | 74 | 1018.0 |
| 20260505234544 | 18 | 277 | 9.7 | 14.5 | 0.00 | 0.18 | 0.18 | 74 | 1018.0 |
| 20260505233529 | 18 | 273 | 8.0 | 11.3 | 0.00 | 0.18 | 0.18 | 75 | 1017.9 |
| 20260505232515 | 18 | 280 | 11.3 | 14.5 | 0.00 | 0.18 | 0.18 | 75 | 1018.0 |
| 20260505231519 | 17 | 264 | 9.7 | 12.9 | 0.00 | 0.18 | 0.18 | 76 | 1018.0 |
| 20260505230523 | 17 | 258 | 9.7 | 12.9 | 0.00 | 0.18 | 0.18 | 76 | 1017.9 |
| 20260505225528 | 18 | 279 | 8.0 | 11.3 | 0.00 | 0.18 | 0.18 | 76 | 1018.0 |
| 20260505224532 | 18 | 276 | 9.7 | 12.9 | 0.00 | 0.18 | 0.18 | 76 | 1018.0 |
| 20260505223518 | 18 | 261 | 8.0 | 14.5 | 0.00 | 0.18 | 0.18 | 77 | 1018.1 |
| 20260505222523 | 18 | 245 | 8.0 | 11.3 | 0.00 | 0.18 | 0.18 | 76 | 1018.3 |
| 20260505221527 | 17 | 306 | 6.4 | 11.3 | 0.00 | 0.18 | 0.18 | 79 | 1018.5 |
| 20260505220531 | 17 | 267 | 6.4 | 8.0 | 0.00 | 0.18 | 0.18 | 79 | 1018.5 |
| 20260505215518 | 17 | 273 | 4.8 | 9.7 | 0.00 | 0.18 | 0.18 | 79 | 1018.5 |
| 20260505214522 | 17 | 272 | 8.0 | 11.3 | 0.00 | 0.18 | 0.18 | 80 | 1018.5 |
| 20260505213527 | 16 | 272 | 6.4 | 8.0 | 0.00 | 0.18 | 0.18 | 80 | 1018.6 |
| 20260505212611 | 16 | 268 | 6.4 | 9.7 | 0.00 | 0.18 | 0.18 | 80 | 1018.6 |
| 20260505211517 | 16 | 274 | 6.4 | 9.7 | 0.00 | 0.18 | 0.18 | 81 | 1018.5 |
| 20260505210521 | 16 | 246 | 8.0 | 12.9 | 0.00 | 0.18 | 0.18 | 81 | 1018.6 |
| 20260505205525 | 16 | 263 | 9.7 | 12.9 | 0.00 | 0.18 | 0.18 | 81 | 1018.7 |
| 20260505204551 | 16 | 279 | 6.4 | 9.7 | 0.00 | 0.18 | 0.18 | 82 | 1018.7 |
| 20260505203516 | 16 | 264 | 8.0 | 11.3 | 0.00 | 0.18 | 0.18 | 81 | 1018.6 |
| 20260505202540 | 16 | 282 | 8.0 | 12.9 | 0.00 | 0.18 | 0.18 | 81 | 1018.7 |
| 20260505201525 | 16 | 255 | 6.4 | 8.0 | 0.00 | 0.18 | 0.18 | 82 | 1018.7 |
| 20260505200523 | 16 | 271 | 8.0 | 11.3 | 0.00 | 0.18 | 0.18 | 81 | 1018.8 |
| 20260505195515 | 16 | 328 | 6.4 | 12.9 | 0.00 | 0.18 | 0.18 | 82 | 1019.0 |
| 20260505194520 | 15 | 295 | 6.4 | 8.0 | 0.00 | 0.18 | 0.18 | 83 | 1019.0 |
| 20260505193518 | 16 | 284 | 6.4 | 9.7 | 0.00 | 0.18 | 0.18 | 83 | 1018.9 |
| 20260505192516 | 16 | 269 | 6.4 | 11.3 | 0.00 | 0.18 | 0.18 | 83 | 1018.8 |
| 20260505191515 | 15 | 277 | 6.4 | 8.0 | 0.00 | 0.18 | 0.18 | 85 | 1018.9 |
| 20260505190518 | 15 | 283 | 8.0 | 11.3 | 0.00 | 0.18 | 0.18 | 87 | 1018.9 |
| 20260505185545 | 15 | 274 | 6.4 | 9.7 | 0.00 | 0.18 | 0.18 | 88 | 1018.7 |
| 20260505184524 | 15 | 286 | 6.4 | 9.7 | 0.00 | 0.18 | 0.18 | 88 | 1018.8 |
| 20260505183536 | 15 | 279 | 8.0 | 11.3 | 0.00 | 0.18 | 0.18 | 87 | 1018.8 |
| 20260505182540 | 15 | 280 | 8.0 | 12.9 | 0.00 | 0.18 | 0.18 | 86 | 1018.7 |
| 20260505181539 | 15 | 267 | 9.7 | 12.9 | 0.00 | 0.18 | 0.18 | 85 | 1018.6 |
| 20260505180518 | 15 | 262 | 9.7 | 12.9 | 0.00 | 0.18 | 0.18 | 85 | 1018.5 |
| 20260505175515 | 15 | 257 | 6.4 | 11.3 | 0.00 | 0.18 | 0.18 | 85 | 1018.4 |
| 20260505174540 | 15 | 278 | 8.0 | 11.3 | 0.00 | 0.18 | 0.18 | 85 | 1018.3 |
| 20260505173534 | 14 | 277 | 8.0 | 11.3 | 0.00 | 0.18 | 0.18 | 87 | 1018.2 |
| 20260505172558 | 14 | 261 | 9.7 | 12.9 | 0.00 | 0.18 | 0.18 | 89 | 1018.3 |
| 20260505171554 | 13 | 263 | 8.0 | 11.3 | 0.00 | 0.18 | 0.18 | 88 | 1018.5 |
| 20260505170519 | 13 | 242 | 8.0 | 9.7 | 0.00 | 0.18 | 0.18 | 88 | 1018.4 |
| 20260505165523 | 14 | 275 | 8.0 | 9.7 | 0.00 | 0.18 | 0.18 | 88 | 1018.2 |
| 20260505164527 | 13 | 261 | 6.4 | 9.7 | 0.00 | 0.18 | 0.18 | 89 | 1018.3 |
| 20260505163532 | 13 | 251 | 8.0 | 11.3 | 0.00 | 0.18 | 0.18 | 89 | 1018.3 |
| 20260505162518 | 13 | 258 | 8.0 | 11.3 | 0.00 | 0.18 | 0.18 | 90 | 1018.2 |
| 20260505161523 | 13 | 268 | 8.0 | 11.3 | 0.00 | 0.18 | 0.18 | 91 | 1018.3 |
| 20260505160607 | 13 | 254 | 6.4 | 9.7 | 0.00 | 0.18 | 0.18 | 91 | 1018.3 |
| 20260505152526 | 12 | 290 | 6.4 | 9.7 | 0.00 | 0.18 | 0.18 | 93 | 1018.0 |
| 20260505151530 | 12 | 271 | 6.4 | 9.7 | 0.00 | 0.18 | 0.18 | 94 | 1017.9 |
| 20260505150516 | 12 | 283 | 8.0 | 9.7 | 0.00 | 0.18 | 0.18 | 94 | 1017.9 |
| 20260505140545 | 11 | 302 | 3.2 | 6.4 | 0.03 | 0.18 | 0.18 | 99 | 1017.5 |
| 20260505124523 | 11 | 225 | 0.0 | 3.2 | 0.00 | 0.15 | 0.15 | 99 | 1017.0 |